Temperature
18 18 18 18 18 18 18 18 18 18 18 18 18 18 18 18 18 18 18 18 18 18 18 18 17 17 17 17 17 17 17 17 17 17 17 17 16 16 16 16 16 16 16
18 18 18 18 18 18 18 18 18 18 18 18 18 18 18 18 18 18 18 18 18 18 18 18 18 17 17 17 17 17 17 17 17 17 17 16 16 16 16 16 16 16 16
18 18 18 18 18 18 18 18 18 18 18 18 18 18 18 18 18 18 18 17 17 18 18 18 18 17 17 17 17 17 17 17 17 17 17 16 16 16 16 16 16 16 16
18 18 18 18 18 18 18 18 18 18 18 18 18 18 18 18 18 18 18 18 17 17 18 18 18 17 17 17 17 17 17 17 17 17 17 16 16 16 16 16 16 16 16
18 18 18 18 18 18 18 18 18 18 18 18 18 18 18 18 18 18 18 18 18 18 17 18 18 18 17 17 17 17 17 17 17 17 17 16 16 16 16 16 16 16 16
18 18 18 18 18 18 18 18 18 18 18 18 19 18 18 18 18 18 18 18 18 18 18 17 17 17 17 17 17 17 17 17 17 17 16 16 16 16 16 16 16 16 16
18 18 18 18 18 18 18 18 18 18 18 18 18 19 19 19 18 18 18 18 18 18 18 18 17 17 17 17 17 17 17 17 17 17 16 16 16 16 16 16 16 16 16
18 18 18 18 18 18 18 18 18 18 18 18 18 19 19 19 18 19 18 18 18 18 18 18 17 17 17 17 17 17 17 17 17 17 16 16 16 16 16 16 16 15 15
18 18 18 18 18 18 18 18 18 18 18 18 18 19 20 20 20 19 18 18 18 18 18 18 17 17 17 17 17 17 17 17 17 17 16 16 16 16 16 15 15 15 15
18 18 18 18 18 18 18 18 18 18 18 18 18 18 18 19 19 19 19 18 18 18 18 18 18 17 17 17 17 17 17 17 17 17 16 16 16 16 16 15 15 15 15
18 18 18 18 18 18 18 18 18 18 18 18 18 18 18 18 18 19 19 18 18 18 17 17 17 17 17 17 17 17 17 17 17 16 16 16 16 16 16 16 15 15 15
18 18 18 18 18 18 18 18 18 18 18 18 18 18 18 18 19 19 19 18 18 18 17 17 17 17 17 16 16 17 17 16 16 16 16 16 16 16 16 15 15 15 15
18 18 18 17 18 18 18 18 18 18 17 17 17 17 18 18 18 18 19 19 18 18 17 17 17 16 16 16 16 16 16 16 16 16 16 16 15 15 15 15 15 15 15
17 17 17 17 17 17 17 18 17 17 17 17 17 17 17 17 17 17 18 18 18 18 18 17 16 16 16 16 16 16 16 16 16 16 16 15 15 15 15 15 15 15 15
17 17 17 17 17 17 17 17 17 17 17 17 17 17 17 17 17 17 17 17 18 19 18 17 16 16 16 16 15 15 15 15 15 15 15 15 15 15 15 15 15 15 15
17 17 17 17 17 17 17 17 17 17 17 17 17 17 17 16 16 16 16 17 17 17 18 17 16 16 15 15 15 15 15 15 15 15 15 15 15 15 15 15 15 15 14
16 17 16 16 16 16 16 17 16 16 16 16 16 16 16 16 16 16 16 16 16 16 17 16 16 15 15 15 15 15 14 14 14 14 14 15 15 14 14 14 14 14 14
16 16 16 16 16 16 16 16 16 16 16 16 16 16 16 16 16 16 16 16 16 16 16 15 15 15 15 15 14 14 14 14 14 14 14 14 14 14 14 14 14 14 14
16 16 16 16 16 16 16 16 15 15 15 15 15 15 15 15 15 15 15 15 15 15 15 15 15 15 15 14 14 14 14 14 14 14 14 14 14 14 14 14 14 14 14
16 16 16 16 16 15 15 15 15 15 15 15 15 15 15 15 15 15 15 15 15 15 15 15 15 15 14 14 14 14 14 14 14 14 13 13 13 13 13 13 13 13 13
16 16 15 15 15 15 15 15 14 14 14 14 14 14 14 14 14 14 14 14 14 14 15 15 15 15 14 14 14 13 14 13 13 13 13 13 13 13 13 13 13 13 13
15 15 15 15 14 14 15 14 14 14 14 14 14 14 14 14 14 14 14 14 14 14 14 14 14 14 13 13 13 13 13 13 13 13 13 13 13 13 13 12 12 12 12
15 15 14 14 14 14 14 14 14 14 14 14 14 14 14 14 14 14 14 14 14 14 14 14 13 13 13 13 13 13 12 12 13 12 12 13 13 12 12 12 12 12 12
14 14 14 14 14 14 14 14 14 14 13 13 13 13 13 13 13 13 13 13 13 13 13 13 13 13 13 13 13 12 12 12 12 12 12 12 12 12 12 12 11 11 11
14 14 14 14 14 14 14 14 14 13 13 13 13 13 13 13 13 13 13 13 13 13 13 13 13 13 13 13 13 12 12 12 12 12 12 12 12 12 11 11 11 11 11
14 14 13 13 13 13 14 13 13 13 13 13 13 13 13 13 13 13 13 13 13 13 13 13 12 12 12 12 12 12 12 12 12 12 12 11 12 11 12 11 11 11 11
Wind_Speed
5 5 5 5 5 5 5 4 4 5 4 4 4 4 3 4 4 4 6 7 6 6 6 5 4 5 4 4 4 5 5 5 6 8 8 9 9 9 8 8 7 7 8
5 5 5 5 4 5 5 4 5 4 4 4 4 4 3 4 4 3 4 6 7 6 5 4 4 4 4 3 3 3 4 5 6 8 9 9 9 9 9 9 8 8 9
5 4 4 4 4 5 5 4 4 4 4 4 4 4 3 3 3 3 2 3 5 7 6 5 4 4 4 4 4 4 5 5 6 7 8 9 9 9 9 10 9 9 10
4 3 3 4 3 4 4 4 4 3 3 3 3 3 2 2 3 2 2 2 2 3 7 7 5 4 4 4 4 4 4 5 6 6 6 7 8 9 10 10 10 10 10
4 3 3 3 3 3 3 3 3 2 3 2 2 2 2 2 2 3 2 2 2 2 3 7 7 5 4 4 4 4 5 5 5 6 6 7 7 8 9 10 10 10 11
3 2 3 2 2 3 3 3 3 2 1 1 1 2 2 2 2 2 2 2 2 2 2 2 4 5 6 4 3 4 5 5 5 6 6 7 7 7 8 9 10 10 11
3 2 2 3 2 3 2 2 2 2 1 1 1 1 2 3 2 2 2 1 2 2 1 1 1 1 3 6 5 4 4 4 5 6 6 7 7 7 7 8 9 10 9
2 2 2 1 2 2 2 2 1 0 1 1 1 1 2 3 3 2 2 2 1 1 1 2 1 1 2 1 3 4 4 4 4 5 6 6 6 7 7 8 8 9 10
2 2 2 1 1 1 2 1 1 1 0 1 1 2 1 0 1 2 2 1 0 0 0 1 1 1 2 1 1 4 3 2 2 3 5 5 6 7 8 8 7 8 8
2 2 1 1 0 1 1 1 1 1 2 1 1 1 2 2 2 0 2 2 1 0 1 1 0 1 1 1 1 3 3 1 1 1 2 4 5 6 8 9 9 8 8
1 1 1 1 0 0 1 1 1 2 2 2 2 1 1 1 3 2 1 0 0 1 0 0 1 1 1 1 1 3 3 2 0 0 1 2 3 3 4 5 7 9 9
1 1 1 1 0 1 0 1 1 1 2 2 2 2 1 2 2 2 2 2 1 0 1 1 1 1 1 1 3 6 4 2 1 0 1 2 2 2 3 4 4 6 8
1 1 1 1 1 0 0 0 0 1 1 1 2 1 1 2 2 2 2 2 2 2 1 1 1 1 2 2 3 4 3 2 1 1 1 1 2 2 2 2 3 4 6
1 1 0 0 0 0 1 0 1 1 1 1 1 1 1 1 1 2 2 2 3 2 1 0 0 2 2 2 4 1 2 3 1 1 1 1 2 2 3 3 3 3 3
0 1 0 0 0 0 1 1 1 1 2 2 1 2 1 1 1 2 2 3 3 3 2 0 1 1 2 2 2 2 2 4 2 1 1 1 2 2 3 3 3 3 3
1 1 1 1 1 1 1 1 2 1 1 1 0 0 1 1 1 1 2 2 3 3 3 2 2 2 3 3 2 3 2 4 3 2 2 2 2 2 2 2 2 2 3
1 1 1 1 0 1 1 2 2 2 2 1 1 1 1 1 1 1 1 1 2 2 3 2 2 1 2 3 2 2 2 1 2 5 3 2 2 2 2 1 1 1 2
1 1 1 1 1 1 1 1 2 2 2 2 2 1 2 1 1 1 1 1 1 1 2 3 3 2 2 2 2 3 2 2 1 5 4 2 1 1 1 1 0 1 1
1 1 1 1 1 0 1 1 1 2 2 2 2 2 2 1 1 1 1 2 2 2 2 3 3 2 2 1 2 3 3 3 3 3 5 5 3 2 1 1 1 1 1
1 1 1 1 1 1 1 1 1 1 1 2 2 2 2 2 2 2 2 2 2 3 3 4 3 2 2 1 3 3 3 2 3 2 1 2 4 5 4 3 2 2 1
1 1 1 1 1 1 1 1 2 2 2 2 2 3 2 1 1 3 3 2 3 4 4 4 4 3 2 2 3 3 3 3 3 2 2 2 2 2 3 4 4 2 1
1 1 2 2 2 1 2 2 2 2 3 3 3 3 3 3 3 4 3 4 4 5 5 5 5 4 3 4 4 4 4 4 3 1 4 4 3 2 1 0 4 4 2
2 2 3 2 2 1 0 1 3 3 3 3 3 3 3 2 3 4 5 7 6 6 6 7 6 6 4 3 4 5 4 5 5 2 4 4 3 3 2 2 7 5 4
3 3 3 3 3 3 2 3 4 3 3 3 4 4 4 3 3 4 5 5 5 5 6 6 6 6 5 4 5 6 5 5 5 3 3 5 3 3 2 1 7 5 4
4 4 4 4 4 4 3 4 4 3 3 4 4 4 4 4 2 4 6 6 6 5 6 7 6 6 4 4 5 5 4 5 5 3 2 4 4 3 3 3 5 7 6
5 5 4 4 4 4 3 4 5 4 4 4 4 4 4 4 3 4 6 6 6 6 5 5 6 6 6 6 7 6 5 6 5 4 1 3 4 3 3 3 2 3 5
Wind_Direction
69 71 74 75 82 89 95 91 87 84 82 84 85 96 93 88 91 104 118 127 143 166 175 179 178 176 175 182 193 200 203 206 207 208 207 208 206 204 202 201 205 202 200
70 74 85 82 84 87 84 91 95 93 83 77 78 73 74 80 87 96 120 132 141 152 166 169 176 183 182 178 185 194 201 213 219 217 216 216 215 212 209 207 208 209 210
76 77 83 90 84 96 105 103 97 91 93 85 82 79 78 86 98 101 111 130 144 152 157 166 175 183 195 203 208 216 218 223 225 229 227 223 219 218 218 216 215 215 213
77 77 83 86 93 103 106 108 104 91 84 83 75 73 81 96 109 126 129 135 151 152 162 170 183 196 212 224 227 223 225 229 226 224 225 226 226 223 224 225 222 220 218
81 82 80 84 107 103 105 106 97 100 103 102 111 116 116 119 133 136 133 151 149 168 167 162 182 200 217 229 240 234 231 230 228 224 223 226 227 226 225 227 227 224 223
76 73 99 95 99 101 97 90 97 89 113 123 111 110 126 130 134 129 157 151 154 178 177 156 181 190 197 211 232 242 241 239 234 229 226 225 225 227 227 227 227 228 227
81 62 82 99 94 96 107 128 132 148 145 130 150 142 145 145 137 135 141 157 149 156 153 164 217 221 180 189 208 231 242 242 232 230 228 226 228 227 222 224 228 230 230
85 103 87 109 89 115 118 117 143 147 136 179 286 249 179 155 164 131 143 157 155 159 166 171 173 197 268 212 159 190 225 238 240 236 229 227 230 228 226 225 226 229 225
90 80 100 77 92 146 122 161 198 218 228 212 275 294 294 49 88 133 124 116 78 11 232 119 181 185 227 263 176 152 171 213 241 248 237 233 234 230 227 227 226 222 220
92 101 108 103 58 61 106 233 91 275 269 264 238 295 318 338 290 193 149 122 134 176 356 338 11 159 234 262 109 65 116 150 213 270 251 246 245 240 235 230 227 225 223
77 72 71 83 78 51 32 344 337 300 285 297 310 297 264 233 249 257 262 305 79 73 81 11 20 18 42 25 59 79 110 118 88 328 291 274 262 261 255 243 238 232 227
97 76 67 63 120 40 50 309 308 295 312 321 310 299 272 272 254 244 244 240 272 354 4 6 341 12 22 23 59 74 83 86 74 19 309 285 273 275 270 257 250 231 224
102 71 57 69 44 17 261 271 281 313 282 274 278 283 299 305 298 279 262 263 272 254 227 232 56 44 20 29 56 72 92 87 56 29 348 294 281 274 269 253 256 236 222
65 62 74 101 16 302 274 241 248 248 247 251 261 285 278 292 291 277 278 277 275 265 235 225 17 42 19 23 56 344 68 95 69 24 356 332 303 281 268 259 248 234 217
176 118 231 217 242 261 258 233 255 250 236 237 223 217 243 252 271 270 269 276 282 286 293 224 282 19 353 28 34 4 13 78 76 30 357 345 330 304 283 271 252 243 222
331 253 251 240 245 247 239 223 210 212 212 211 236 283 274 261 274 273 288 290 286 289 293 320 329 357 359 341 46 349 2 113 110 93 63 23 351 334 306 281 250 234 228
233 238 243 245 275 284 254 227 215 195 202 206 209 196 233 298 278 286 279 277 276 285 274 297 313 6 343 325 349 320 297 284 111 124 98 56 33 18 3 329 247 218 222
222 222 233 238 237 242 244 223 219 207 207 210 213 210 225 203 222 284 288 282 281 284 275 283 291 299 305 301 310 292 300 296 319 130 140 145 112 83 69 59 90 174 203
234 225 219 233 246 239 230 223 221 226 221 219 219 215 225 219 231 248 262 265 265 258 266 263 272 301 290 301 292 283 290 296 285 158 168 169 163 156 165 160 140 156 181
244 253 247 235 214 229 230 232 232 243 242 235 229 231 232 234 240 247 239 250 263 266 260 263 269 267 266 275 274 277 279 272 289 274 206 201 190 192 192 187 179 164 143
240 242 257 259 249 236 232 250 245 243 247 241 231 227 219 221 288 278 277 271 264 264 265 267 266 265 266 276 274 275 281 278 263 268 279 256 222 229 192 185 180 161 143
252 239 248 255 257 259 60 10 288 258 253 249 239 229 218 204 211 218 250 271 276 266 273 276 271 276 274 266 274 274 274 280 281 261 283 279 275 279 275 152 134 145 165
243 245 246 247 243 240 214 268 276 267 256 253 251 248 253 232 223 246 224 221 233 244 258 269 276 280 275 270 272 268 272 280 291 300 277 277 276 279 278 97 130 152 166
240 244 246 246 244 235 221 240 258 248 256 254 246 243 245 256 260 273 269 255 249 242 238 245 261 268 273 275 258 264 270 263 261 256 262 277 276 280 291 195 148 155 172
239 240 242 243 243 243 230 235 255 244 245 249 248 246 248 251 273 275 264 261 257 255 227 220 236 250 260 249 262 261 260 261 264 254 241 277 281 280 271 249 174 171 182
241 245 246 250 251 251 231 232 254 251 251 251 243 235 229 242 259 260 256 259 261 263 267 240 224 225 229 220 219 242 260 263 271 270 223 266 276 281 268 251 251 217 210
Height
1518 1518 1519 1519 1520 1521 1521 1522 1524 1525 1526 1527 1528 1529 1530 1531 1532 1533 1532 1532 1533 1533 1534 1534 1535 1535 1536 1536 1537 1537 1537 1538 1538 1538 1538 1539 1540 1541 1541 1542 1542 1543 1544
1521 1521 1522 1522 1523 1524 1524 1525 1526 1526 1527 1528 1529 1530 1531 1531 1532 1533 1533 1533 1533 1534 1534 1535 1535 1536 1536 1536 1536 1536 1536 1536 1536 1536 1537 1538 1539 1539 1540 1540 1541 1542 1543
1523 1523 1524 1524 1525 1526 1526 1527 1528 1529 1529 1530 1530 1530 1531 1532 1533 1533 1534 1534 1534 1534 1534 1535 1535 1535 1536 1536 1536 1536 1536 1536 1535 1535 1535 1536 1537 1537 1538 1539 1539 1540 1541
1525 1525 1526 1526 1527 1528 1528 1529 1530 1530 1531 1531 1531 1532 1532 1532 1533 1533 1534 1534 1535 1535 1535 1535 1535 1535 1535 1535 1535 1535 1534 1534 1534 1534 1534 1534 1535 1535 1536 1537 1537 1538 1539
1527 1527 1527 1528 1528 1529 1530 1530 1531 1531 1531 1532 1532 1532 1533 1533 1533 1534 1534 1534 1534 1534 1535 1534 1534 1534 1534 1534 1534 1534 1533 1533 1532 1532 1532 1532 1533 1533 1534 1534 1534 1535 1536
1528 1529 1529 1528 1530 1530 1530 1530 1530 1531 1532 1532 1533 1533 1533 1533 1533 1534 1534 1534 1534 1534 1535 1534 1534 1533 1533 1533 1533 1532 1532 1531 1531 1530 1530 1530 1531 1531 1531 1531 1532 1532 1533
1529 1529 1530 1530 1530 1531 1530 1531 1531 1531 1532 1532 1533 1533 1533 1533 1533 1533 1533 1533 1533 1533 1533 1533 1533 1533 1533 1531 1531 1531 1530 1530 1529 1528 1528 1528 1529 1529 1529 1529 1529 1530 1530
1530 1531 1530 1531 1531 1530 1530 1531 1531 1532 1532 1532 1533 1533 1533 1534 1533 1533 1533 1532 1533 1533 1533 1532 1532 1531 1532 1532 1530 1529 1529 1528 1527 1527 1526 1526 1526 1526 1526 1526 1526 1527 1527
1530 1530 1530 1531 1531 1531 1531 1530 1531 1531 1532 1532 1532 1533 1532 1531 1533 1533 1532 1532 1532 1532 1532 1532 1531 1531 1530 1530 1530 1528 1527 1526 1525 1525 1524 1524 1524 1524 1523 1523 1523 1524 1524
1531 1531 1531 1530 1531 1531 1530 1531 1531 1531 1531 1531 1531 1531 1532 1532 1532 1532 1532 1531 1531 1531 1531 1531 1531 1530 1529 1529 1528 1526 1525 1525 1524 1523 1522 1522 1521 1521 1520 1520 1521 1521 1521
1530 1531 1530 1530 1530 1530 1530 1529 1530 1530 1530 1531 1531 1531 1530 1530 1531 1531 1530 1531 1531 1530 1530 1529 1529 1529 1528 1527 1526 1525 1524 1523 1522 1521 1520 1519 1519 1518 1518 1518 1517 1517 1517
1530 1530 1530 1529 1529 1529 1529 1528 1528 1529 1529 1528 1529 1529 1530 1530 1530 1530 1529 1529 1529 1530 1529 1528 1528 1527 1526 1526 1525 1523 1522 1521 1520 1519 1518 1517 1517 1516 1516 1515 1514 1514 1515
1529 1528 1529 1528 1528 1527 1527 1527 1527 1527 1527 1527 1527 1528 1528 1528 1528 1528 1528 1528 1528 1528 1527 1527 1526 1526 1525 1524 1523 1521 1520 1519 1518 1517 1516 1515 1515 1514 1513 1513 1512 1512 1512
1528 1527 1527 1527 1526 1526 1526 1525 1526 1526 1526 1526 1526 1526 1526 1526 1526 1527 1527 1527 1526 1526 1526 1526 1525 1524 1523 1522 1521 1519 1519 1517 1516 1516 1515 1513 1512 1512 1511 1510 1510 1510 1509
1526 1526 1525 1525 1524 1524 1524 1523 1524 1523 1524 1524 1525 1524 1524 1525 1525 1525 1525 1525 1526 1524 1524 1524 1524 1522 1521 1520 1519 1518 1517 1515 1514 1513 1512 1511 1510 1509 1508 1508 1507 1507 1507
1524 1524 1523 1523 1522 1522 1522 1522 1522 1522 1522 1522 1522 1522 1522 1523 1523 1523 1523 1523 1523 1524 1523 1523 1522 1521 1519 1519 1517 1516 1515 1513 1512 1511 1510 1509 1508 1507 1506 1506 1505 1505 1505
1522 1522 1521 1521 1520 1520 1520 1519 1520 1520 1520 1520 1520 1520 1520 1520 1521 1521 1521 1521 1521 1521 1521 1521 1520 1518 1516 1516 1515 1514 1513 1512 1511 1509 1508 1506 1505 1504 1504 1503 1503 1503 1502
1521 1520 1519 1519 1518 1518 1518 1518 1518 1518 1518 1518 1518 1518 1519 1519 1519 1519 1519 1519 1519 1518 1519 1518 1517 1516 1515 1513 1512 1511 1511 1511 1510 1507 1506 1504 1503 1502 1502 1501 1501 1500 1500
1519 1518 1518 1517 1516 1516 1516 1516 1516 1516 1516 1516 1516 1516 1517 1517 1517 1517 1516 1517 1517 1517 1516 1516 1515 1514 1513 1512 1510 1510 1509 1508 1508 1506 1504 1503 1502 1501 1500 1499 1499 1498 1498
1517 1516 1516 1515 1514 1514 1514 1514 1514 1514 1513 1513 1513 1514 1514 1514 1514 1514 1515 1514 1514 1514 1514 1514 1513 1512 1511 1510 1509 1508 1507 1506 1506 1505 1503 1501 1500 1499 1498 1497 1497 1496 1495
1515 1514 1514 1513 1513 1512 1512 1512 1512 1512 1511 1511 1511 1511 1512 1511 1512 1512 1513 1512 1512 1512 1512 1512 1511 1510 1509 1508 1507 1506 1506 1504 1503 1502 1501 1501 1499 1498 1497 1495 1494 1494 1493
1512 1512 1511 1511 1510 1511 1510 1509 1509 1509 1509 1508 1508 1508 1509 1509 1509 1509 1509 1508 1509 1509 1509 1508 1508 1508 1506 1505 1504 1504 1503 1503 1502 1501 1499 1498 1498 1496 1495 1494 1492 1491 1491
1510 1509 1509 1509 1508 1507 1507 1507 1507 1506 1506 1506 1506 1506 1507 1507 1506 1506 1505 1505 1505 1505 1505 1505 1505 1504 1503 1502 1501 1501 1501 1500 1499 1498 1496 1496 1495 1494 1493 1491 1490 1489 1488
1508 1507 1507 1506 1505 1505 1505 1504 1504 1504 1503 1503 1503 1503 1503 1503 1503 1503 1502 1502 1502 1502 1501 1501 1500 1500 1500 1499 1498 1498 1497 1496 1496 1495 1494 1494 1493 1492 1491 1489 1487 1486 1486
1505 1505 1504 1504 1503 1502 1502 1502 1501 1501 1501 1501 1501 1500 1500 1500 1500 1499 1499 1499 1498 1498 1497 1496 1496 1496 1495 1495 1494 1495 1495 1494 1494 1493 1491 1491 1490 1489 1488 1487 1486 1484 1484
1502 1502 1501 1501 1501 1500 1499 1499 1498 1499 1499 1498 1498 1497 1497 1496 1496 1496 1495 1495 1495 1494 1494 1493 1492 1492 1492 1492 1491 1491 1491 1492 1491 1491 1489 1488 1487 1487 1486 1485 1484 1483 1481